Погода в Костерёво

Россия / Владимирская область     55°56′01″N   39°37′29″E
темп.,
°C
ветер,
м/с
пор.,
м/с
влажн.,
%
обл.,
%
осадки,
мм/ч
давл.,
гПа
погр.,
м
11 апреля, вс
вс1100:000ю27850 0.0 1026107
03:00−1ююз25890 0.0 102775
06:00+1юз24820 0.0 102860
09:00+7юз24655 0.0 1029289
12:00+11юз24530 0.0 1029752
15:00+13юз23460 0.0 10301228
18:00+11юв11620 0.0 103110
21:00+6вюв22810 0.0 103320
12 апреля, пн
пн1200:00+5вюв11823 0.0 103410
03:00+3вюв22851 0.0 103522
06:00+3в2586100 0.0 103579
09:00+8в41069100 0.0 1035390
12:00+11в5962100 0.0 1034735
15:00+12в5958100 0.0 1032842
18:00+10вюв41072100 0.0 1031683
21:00+7вюв4108199 0.0 1031348
13 апреля, вт
вт1300:00+5в3896100 0.0 1030199
03:00+5в279892 0.0 1029146
06:00+5юв279557 0.0 1028132
09:00+12ююв386799 0.0 1027302
12:00+17ю4846100 0.0 1027880
15:00+19ю4734100 0.0 10251822
18:00+15ю235199 0.0 102540
21:00+11ююв266379 0.0 102590
14 апреля, ср
ср1400:00+9ююв236882 0.0 102541
03:00+8ююв227599 0.0 102530
06:00+7ююв237963 0.0 102449
09:00+13ююв3756100 0.0 1024325
12:00+17ююв4641100 0.0 1023862
15:00+19ююв463378 0.0 10211724
18:00+16ююв254875 0.0 1020101
21:00+11юв2261100 0.0 102013
15 апреля, чт
чт1500:00+9юв2269100 0.0 102027
03:00+8юв2272100 0.0 101919
06:00+7ююв2277100 0.0 101926
09:00+13ююв235676 0.0 1018278
12:00+17ю2443100 0.0 1018777
15:00+18ююз223893 0.0 10171452
18:00+16ссз1150100 0.0 101711
21:00+12ссв51274100 0.0 1018420